Terug naar catalogus

STARLINK-37563

ActiefCommunicatieVLEO
NORAD 69457·PAYLOAD·🇺🇸 United States

Gelanceerd Jun 8, 2026 vanaf Cape Canaveral Space Force Station

Loading…

Volgende Passages (komende 24 uur)

TLE

VersSource: CelesTrak SupGP

Epoch: Sep 15, 2026, 04:02 UTC

1 69457C 26127Q   26258.16854167 -.00033238  00000+0 -98207-3 0  2587
2 69457  53.1584 190.9746 0001288  88.7847 103.9423 15.34405620    19

Volg STARLINK-37563 in realtime met AllMySat

Download on the App Store